Location: Arbon
(43.0005°N, 0.7472°E)
Time: 01:58:04
(UTC+00:00)

H-2A R/B - Pass Details

Date: 07 August 2020
Orbit: 578 x 654 km, 98.5° (Epoch: 27 September)

Event Time Altitude Azimuth Distance (km) Brightness Sun altitude
Rises 03:42:52 0° 173° (S) 2,812 5.1 -12.2°
Reaches altitude 10° 03:45:03 10° 177° (S) 1,907 4.3 -11.9°
Maximum altitude 03:49:07 61° 258° (WSW) 665 1.9 -11.3°
Drops below altitude 10° 03:53:12 10° 339° (NNW) 1,902 4.7 -10.6°
Sets 03:55:23 0° 343° (NNW) 2,805 5.7 -10.3°
